Location: Godiavel Galaoual
(15.2485°N, 12.6604°W)
Time: 23:58:31
(UTC+00:00)

Explorer 7 - Pass Details

Date: 19 June 2021
Orbit: 484 x 676 km, 50.3° (Epoch: 29 July)

Event Time Altitude Azimuth Distance (km) Brightness Sun altitude
Rises 18:43:33 0° 194° (SSW) 2,916 10.4 7.9°
Reaches altitude 10° 18:46:09 10° 181° (S) 2,036 9.5 7.3°
Maximum altitude 18:50:02 26° 125° (SE) 1,307 8.3 6.5°
Drops below altitude 10° 18:54:02 10° 70° (ENE) 2,093 9.4 5.6°
Sets 18:56:44 0° 57° (ENE) 3,015 10.2 5.0°
